[[{"header":{"parameterUnit":"m.s-1","parameterCategory":1,"la1":30.2991,"la2":30.254,"lo1":-89.0895,"lo2":-89.0444,"dy":0.0017,"dx":0.0017,"nx":28,"ny":28,"refTime":"2024-10-10T21:00:00:Z","depth":0,"parameterNumber":2,"parameterNumberName":"U-component_of_WINDS"},"data":[0,0,0,0,0,0,0,0,0,0,0,0,0,0,0,0,0,0,0,0,0,0,0,0,0,0,0,0,0,0,0,0,0,0,0,0,0,0,0,0,0,0,0,0,0,0,0,0,0,0,0,0,0,0,0,0,0,0,-1.5829,-1.5828,0,-1.5811,-1.5811,-1.581,-1.5738,-1.5736,-1.5735,-1.5733,-1.5718,-1.5719,-1.572,0,0,0,0,0,0,0,0,0,0,0,0,0,-1.5805,-1.5806,-1.5829,-1.5828,-1.5828,-1.5811,-1.5811,-1.581,-1.5738,-1.5736,-1.5734,-1.5732,-1.5718,-1.5719,-1.572,0,0,0,0,0,0,0,0,0,0,0,0,0,-1.5804,-1.5806,-1.5829,-1.579,-1.5786,-1.5811,-1.5811,-1.581,-1.5739,-1.5736,-1.5734,-1.5731,-1.5717,-1.5719,-1.5721,-1.5782,0,0,-1.5726,-1.5727,0,0,0,0,0,0,0,0,-1.5805,-1.5805,-1.5796,-1.5793,-1.5789,-1.5774,-1.5797,-1.5801,-1.5739,-1.5757,-1.5733,-1.573,-1.5739,-1.5739,-1.5741,-1.5781,-1.578,-1.5726,-1.5727,-1.5728,-1.5728,0,0,0,0,0,0,0,-1.5805,-1.5806,-1.5822,-1.5796,-1.5792,-1.5775,-1.5772,-1.5797,-1.5762,-1.5755,-1.575,-1.5749,-1.5736,-1.5739,-1.574,-1.578,-1.5726,-1.5728,-1.5729,-1.5729,-1.5874,-1.5876,0,0,0,0,0,0,-1.581,-1.5806,-1.5822,-1.5821,-1.5791,-1.5778,-1.5775,-1.5781,-1.5762,-1.5756,-1.5751,-1.5745,-1.5738,-1.5738,-1.5739,-1.5812,-1.5728,-1.5729,-1.573,-1.5871,-1.5874,-1.5877,0,0,0,0,0,0,-1.5809,-1.5812,-1.5823,-1.5812,-1.5812,-1.5781,-1.5789,-1.5782,-1.5785,-1.5758,-1.5752,-1.576,-1.5736,-1.5737,-1.5772,-1.5811,-1.573,-1.5732,-1.5868,-1.5872,-1.5876,-1.5958,0,0,0,0,0,0,-1.5809,-1.5812,-1.5834,-1.5813,-1.5813,-1.5855,-1.5791,-1.5784,-1.5788,-1.5781,-1.5765,-1.5761,-1.5734,-1.577,-1.5774,-1.5812,-1.5733,-1.5864,-1.5869,-1.5874,-1.5951,-1.5964,-1.5975,0,0,0,0,0,-1.5808,-1.5857,-1.5835,-1.5837,-1.5839,-1.5857,-1.5857,-1.5825,-1.5791,-1.5814,-1.5797,-1.5761,-1.5806,-1.5774,-1.5778,-1.5817,-1.5861,-1.5868,-1.5874,-1.5946,-1.5962,-1.5975,0,0,0,0,0,0,-1.5883,-1.5854,-1.5829,-1.5872,-1.5868,-1.5845,-1.5872,-1.5842,-1.5847,-1.5841,-1.5801,-1.5798,-1.584,-1.5832,-1.5797,-1.5877,-1.5828,-1.5835,-1.5881,-1.5896,-1.5907,-1.5909,-1.5735,0,0,0,0,0,-1.5905,-1.592,-1.5894,-1.5935,-1.5934,-1.5904,-1.591,-1.5886,-1.588,-1.5878,-1.5864,-1.5861,-1.5875,-1.5884,-1.5895,-1.5949,-1.5947,-1.5978,-1.599,-1.6,-1.6007,-1.6039,-1.6054,-1.5898,-1.5898,-1.5898,0,0,-1.5949,-1.5935,-1.5948,-1.595,-1.5944,-1.5963,-1.5903,-1.5925,-1.594,-1.5882,-1.5915,-1.5905,-1.5899,-1.5945,-1.5965,-1.594,-1.605,-1.6008,-1.6016,-1.6018,-1.6047,-1.6062,-1.6075,-1.5902,-1.5901,-1.5901,0,0,-1.6041,-1.6031,-1.6065,-1.6061,-1.6052,-1.6032,-1.604,-1.6023,-1.6014,-1.6046,-1.6004,-1.6022,-1.6045,-1.6044,-1.6046,-1.6141,-1.6109,-1.6145,-1.6208,-1.6239,-1.6252,-1.6263,-1.63,-1.6313,-1.6153,-1.6153,-1.6153,0,-1.6098,-1.6124,-1.6087,-1.6113,-1.6117,-1.6065,-1.6101,-1.6099,-1.6095,-1.6099,-1.607,-1.6101,-1.6093,-1.614,-1.6164,-1.6166,-1.6177,-1.6148,-1.6253,-1.6263,-1.6273,-1.6308,-1.6321,-1.6157,-1.6157,-1.6156,-1.6156,0,-1.6196,-1.6215,-1.6245,-1.6242,-1.6249,-1.628,-1.6249,-1.6261,-1.6237,-1.622,-1.6256,-1.6245,-1.6255,-1.6264,-1.6239,-1.6309,-1.6294,-1.6259,-1.6209,-1.6293,-1.6325,-1.6338,-1.6164,-1.6163,-1.6161,-1.616,0,0,-1.6335,-1.6312,-1.6324,-1.6324,-1.6311,-1.6326,-1.6356,-1.6365,-1.6377,-1.6377,-1.6403,-1.6425,-1.6394,-1.6397,-1.6373,-1.64,-1.6481,-1.6363,-1.6363,-1.6388,-1.656,-1.6588,-1.6604,-1.6459,-1.6461,-1.6463,-1.6562,0,-1.6424,-1.6473,-1.6442,-1.6497,-1.6516,-1.6468,-1.6495,-1.6492,-1.6478,-1.6493,-1.6478,-1.6496,-1.6452,-1.6454,-1.6479,-1.6465,-1.6515,-1.6457,-1.6486,-1.6487,-1.6491,-1.662,-1.6648,-1.6742,-1.6574,-1.6576,-1.6577,0,-1.6535,-1.654,-1.6597,-1.6584,-1.6591,-1.6615,-1.6622,-1.6637,-1.6634,-1.6622,-1.6627,-1.6596,-1.6628,-1.6577,-1.6621,-1.6583,-1.6593,-1.6588,-1.6591,-1.6594,-1.6539,-1.663,-1.6771,-1.6786,-1.6596,-1.6595,-1.6593,0,-1.6635,-1.6655,-1.6692,-1.6693,-1.6678,-1.6697,-1.6692,-1.6686,-1.6694,-1.6701,-1.6706,-1.6717,-1.6723,-1.6733,-1.6708,-1.6673,-1.6757,-1.6704,-1.6751,-1.6752,-1.6772,-1.6772,-1.692,-1.6775,-1.6774,-1.6774,-1.6774,0,-1.6739,-1.6777,-1.6737,-1.676,-1.6802,-1.6767,-1.6809,-1.6799,-1.6795,-1.6817,-1.6776,-1.6799,-1.6762,-1.6782,-1.6762,-1.6804,-1.6807,-1.68,-1.6795,-1.6806,-1.6807,-1.6813,-1.6807,-1.6778,-1.6777,-1.6776,-1.6776,0,-1.6858,-1.6832,-1.687,-1.6853,-1.685,-1.6882,-1.6868,-1.6891,-1.6874,-1.6904,-1.6909,-1.6884,-1.6905,-1.6881,-1.6899,-1.6887,-1.6944,-1.6928,-1.6946,-1.6942,-1.6992,-1.6989,-1.7152,-1.7173,-1.7011,-1.7013,-1.7014,0,-1.6927,-1.6955,-1.6942,-1.6954,-1.6951,-1.697,-1.6979,-1.6946,-1.6957,-1.6957,-1.698,-1.6998,-1.701,-1.7047,-1.7032,-1.7048,-1.7033,-1.7089,-1.7035,-1.7046,-1.7038,-1.7038,-1.7042,-1.7101,-1.7103,-1.7104,-1.7106,0,-1.7055,-1.7042,-1.7055,-1.7065,-1.7077,-1.7083,-1.7087,-1.7099,-1.7065,-1.708,-1.7101,-1.7111,-1.7131,-1.7151,-1.7162,-1.7159,-1.7129,-1.7123,-1.7135,-1.7147,-1.7157,-1.7156,-1.6979,-1.7119,-1.7118,-1.7117,-1.7116,-1.7116,-1.7153,-1.7177,-1.7172,-1.7189,-1.7189,-1.7194,-1.7215,-1.7202,-1.7218,-1.7232,-1.7212,-1.7239,-1.7238,-1.7251,-1.7252,-1.7274,-1.7251,-1.7268,-1.7272,-1.7278,-1.7287,-1.7152,-1.7276,-1.7275,-1.7275,-1.7275,-1.7274,0,-1.7282,-1.7276,-1.7292,-1.7299,-1.7314,-1.7282,-1.7285,-1.73,-1.7325,-1.7326,-1.7339,-1.7366,-1.7385,-1.7372,-1.7389,-1.741,-1.7397,-1.7416,-1.7416,-1.7416,-1.7305,-1.7294,-1.7427,-1.7427,-1.7427,-1.7427,-1.7427,-1.7427,-1.735,-1.739,-1.7377,-1.7417,-1.7412,-1.7438,-1.7443,-1.7448,-1.745,-1.7481,-1.7496,-1.7487,-1.7484,-1.7501,-1.7519,-1.7515,-1.7525,-1.755,-1.7542,-1.7439,-1.7424,-1.7409,-1.7399,-1.7551,-1.7552,-1.7651,-1.7652,-1.7652]},{"header":{"parameterUnit":"m.s-1","parameterCategory":1,"la1":30.2991,"la2":30.254,"lo1":-89.0895,"lo2":-89.0444,"dy":0.0017,"dx":0.0017,"nx":28,"ny":28,"refTime":"2024-10-10T21:00:00:Z","depth":0,"parameterNumber":3,"parameterNumberName":"V-component_of_WINDS"},"data":[0,0,0,0,0,0,0,0,0,0,0,0,0,0,0,0,0,0,0,0,0,0,0,0,0,0,0,0,0,0,0,0,0,0,0,0,0,0,0,0,0,0,0,0,0,0,0,0,0,0,0,0,0,0,0,0,0,0,0.7717,0.7717,0,0.7697,0.7697,0.7697,0.7658,0.7657,0.7657,0.7656,0.7634,0.7634,0.7634,0,0,0,0,0,0,0,0,0,0,0,0,0,0.772,0.772,0.7717,0.7717,0.7717,0.7697,0.7697,0.7697,0.7658,0.7657,0.7656,0.7656,0.7634,0.7634,0.7634,0,0,0,0,0,0,0,0,0,0,0,0,0,0.7711,0.772,0.7717,0.7695,0.7693,0.7697,0.7697,0.7696,0.7658,0.7657,0.7656,0.7655,0.7633,0.7634,0.7634,0.7657,0,0,0.7634,0.7634,0,0,0,0,0,0,0,0,0.7711,0.7711,0.7699,0.7697,0.7694,0.7679,0.7689,0.7683,0.7659,0.7672,0.7656,0.7655,0.7649,0.7648,0.7647,0.7656,0.7655,0.7634,0.7634,0.7634,0.7634,0,0,0,0,0,0,0,0.7712,0.7712,0.7709,0.7699,0.7696,0.7685,0.7683,0.7688,0.7667,0.767,0.7667,0.7666,0.7648,0.7647,0.7646,0.7655,0.7634,0.7634,0.7634,0.7635,0.7678,0.7679,0,0,0,0,0,0,0.7716,0.7712,0.771,0.7709,0.77,0.7686,0.7684,0.7685,0.7667,0.7663,0.7667,0.7664,0.7647,0.7646,0.7645,0.7668,0.7634,0.7635,0.7635,0.7677,0.7679,0.768,0,0,0,0,0,0,0.7716,0.7716,0.7711,0.771,0.7708,0.7687,0.7689,0.7685,0.7684,0.7664,0.766,0.7669,0.7646,0.7645,0.7654,0.7667,0.7635,0.7635,0.7676,0.7678,0.7679,0.7717,0,0,0,0,0,0,0.7717,0.7717,0.7726,0.771,0.7708,0.7721,0.769,0.7686,0.7684,0.7681,0.7666,0.7662,0.7645,0.7654,0.7654,0.7667,0.7635,0.7675,0.7677,0.7679,0.7714,0.772,0.7724,0,0,0,0,0,0.7717,0.7738,0.7727,0.7727,0.772,0.7722,0.772,0.7701,0.7686,0.7694,0.7681,0.7662,0.7666,0.7655,0.7655,0.7668,0.7674,0.7676,0.7679,0.7712,0.7719,0.7724,0,0,0,0,0,0,0.7756,0.7735,0.7723,0.774,0.7733,0.7715,0.7725,0.7709,0.7706,0.7702,0.7678,0.7675,0.7686,0.7678,0.7666,0.7688,0.7667,0.7669,0.7692,0.7698,0.7703,0.7704,0.7635,0,0,0,0,0,0.7767,0.777,0.7752,0.7768,0.7766,0.7746,0.7746,0.7732,0.7723,0.772,0.7708,0.77,0.7698,0.7698,0.7697,0.7714,0.7708,0.7722,0.7727,0.7732,0.7733,0.7738,0.7744,0.7688,0.7688,0.7688,0,0,0.7788,0.7777,0.7781,0.7776,0.7769,0.7772,0.7744,0.7749,0.775,0.7721,0.7727,0.7718,0.7707,0.772,0.7724,0.7713,0.7748,0.7735,0.7738,0.7737,0.7741,0.7747,0.7751,0.7689,0.7689,0.7689,0,0,0.7828,0.7822,0.7833,0.7827,0.7816,0.7803,0.7806,0.7791,0.7783,0.779,0.7767,0.7768,0.7768,0.776,0.7756,0.7792,0.7773,0.7792,0.7817,0.7822,0.7827,0.783,0.784,0.7844,0.7794,0.7795,0.7795,0,0.7856,0.7861,0.7841,0.7847,0.7844,0.7818,0.7828,0.7822,0.7812,0.781,0.7798,0.7795,0.7786,0.7795,0.7803,0.7802,0.7803,0.7793,0.7828,0.7831,0.7834,0.7843,0.7848,0.7797,0.7796,0.7796,0.7796,0,0.7894,0.7897,0.7908,0.7897,0.7896,0.7904,0.7885,0.7885,0.7871,0.7859,0.7865,0.7853,0.7847,0.7849,0.7835,0.7855,0.7848,0.7832,0.781,0.7842,0.785,0.7854,0.78,0.7799,0.7798,0.7798,0,0,0.7957,0.7935,0.7939,0.7933,0.7919,0.7921,0.7927,0.7922,0.7921,0.7915,0.7918,0.7918,0.7903,0.7898,0.7884,0.7889,0.7914,0.7872,0.7872,0.7878,0.7931,0.7941,0.7946,0.7903,0.7904,0.7904,0.7931,0,0.7991,0.8001,0.7983,0.7996,0.7997,0.7972,0.7977,0.7968,0.7957,0.7955,0.7943,0.7942,0.7924,0.792,0.7925,0.791,0.7924,0.7909,0.7903,0.7903,0.7904,0.795,0.7961,0.7987,0.7935,0.7935,0.7936,0,0.8033,0.8028,0.8041,0.8024,0.8024,0.8029,0.8021,0.8021,0.801,0.8001,0.7996,0.7979,0.7982,0.7962,0.7965,0.7955,0.7951,0.7944,0.7945,0.7941,0.792,0.7945,0.7995,0.7998,0.7941,0.7941,0.794,0,0.8073,0.807,0.8077,0.8073,0.8055,0.8058,0.8051,0.8039,0.8036,0.8029,0.8027,0.8021,0.8017,0.8012,0.7992,0.7981,0.7996,0.7976,0.7987,0.7987,0.7989,0.7989,0.8037,0.7992,0.7992,0.7992,0.7992,0,0.8112,0.812,0.8094,0.8098,0.8106,0.8085,0.8093,0.8083,0.8073,0.8073,0.8052,0.8052,0.8028,0.8026,0.8011,0.8014,0.8013,0.8004,0.8,0.8005,0.8005,0.8,0.7997,0.7993,0.7993,0.7993,0.7992,0,0.8157,0.8141,0.8146,0.8128,0.8124,0.813,0.8114,0.8116,0.8104,0.8104,0.8103,0.8083,0.8078,0.806,0.8051,0.8041,0.8048,0.8041,0.8051,0.8048,0.8059,0.8057,0.8103,0.8107,0.8062,0.8063,0.8063,0,0.8182,0.8187,0.817,0.8169,0.8162,0.8161,0.8158,0.8137,0.8135,0.8122,0.8125,0.8119,0.8113,0.8107,0.8091,0.8084,0.8075,0.8091,0.8073,0.8077,0.8071,0.807,0.8069,0.8094,0.8095,0.8095,0.8096,0,0.8225,0.8217,0.8213,0.8207,0.8203,0.8197,0.819,0.819,0.8167,0.8165,0.816,0.8156,0.8147,0.814,0.813,0.8121,0.8103,0.8102,0.8103,0.8107,0.8112,0.8107,0.8059,0.81,0.81,0.8099,0.8099,0.8099,0.8259,0.8261,0.8249,0.8246,0.8238,0.8231,0.8231,0.8219,0.8215,0.8206,0.8194,0.8191,0.8178,0.8163,0.8155,0.8151,0.8141,0.8145,0.8145,0.8145,0.8147,0.8115,0.8149,0.8149,0.8149,0.8149,0.8149,0,0.8299,0.829,0.8287,0.8276,0.8273,0.8259,0.8249,0.8247,0.8244,0.8234,0.8229,0.8223,0.8216,0.82,0.8191,0.8191,0.8182,0.8189,0.8187,0.8185,0.8157,0.8155,0.8195,0.8195,0.8195,0.8195,0.8195,0.8195,0.8319,0.8322,0.8312,0.8311,0.8301,0.8298,0.8293,0.8286,0.8278,0.8272,0.8267,0.8256,0.8243,0.8233,0.8226,0.8221,0.8218,0.8226,0.8218,0.8192,0.8187,0.8183,0.8181,0.8226,0.8226,0.8246,0.8247,0.8247]}]]